Location: Allen Lane School
(37.8198°N, 89.7382°W)
Time: 07:11:47
(UTC+00:00)

Meteor 1-14 Rocket - Pass Details

Date: 28 June 2022
Orbit: 833 x 919 km, 81.3° (Epoch: 12 August)

Event Time Altitude Azimuth Distance (km) Brightness Sun altitude
Rises 09:48:01 0° 170° (S) 3,527 7.1 -9.1°
Reaches altitude 10° 09:50:35 10° 164° (SSE) 2,581 6.5 -8.7°
Maximum altitude 09:56:10 46° 93° (E) 1,191 5.4 -7.9°
Drops below altitude 10° 10:01:40 10° 22° (NNE) 2,547 7.7 -7.0°
Sets 10:04:10 0° 16° (NNE) 3,476 8.3 -6.6°
